Wind_Speed
59 59 59 59 59 59 60 60 60 60 59 57 57 57 58 59 59 59 59 59 60 60 60 60 59 59 59 58 57 57 56 55 54 54 53 52 52 51
58 59 58 58 58 58 58 58 58 59 58 55 56 56 56 56 58 59 60 60 59 59 60 60 59 58 58 58 57 57 56 55 55 55 55 54 53 51
57 56 56 56 57 57 57 57 57 58 58 55 56 56 56 57 57 58 59 60 58 57 58 58 58 58 58 57 57 57 56 55 56 56 55 55 55 53
55 55 55 56 56 56 56 57 57 57 58 57 56 56 56 57 57 57 58 58 56 56 56 57 56 56 56 56 56 56 55 55 55 55 55 55 55 54
54 54 54 55 55 55 55 56 57 57 58 57 55 55 55 55 55 55 56 56 55 55 55 55 55 55 55 55 55 55 55 56 55 54 54 56 55 53
54 54 54 54 54 55 56 56 57 57 57 56 55 54 54 54 55 54 54 53 54 54 54 55 54 53 53 53 54 54 54 54 54 54 53 53 53 52
53 53 54 54 54 55 55 55 56 56 55 55 54 53 54 53 53 53 52 52 52 52 52 52 51 51 51 52 53 53 53 52 52 52 52 52 52 51
52 52 53 53 53 54 54 54 53 53 53 53 52 52 52 51 51 52 51 51 51 50 51 49 49 48 49 50 51 51 51 50 50 49 49 49 48 48
51 51 51 51 52 52 52 52 52 52 53 52 51 50 50 49 49 49 49 49 49 49 49 47 45 44 45 45 46 46 47 46 46 45 45 45 45 45
51 51 51 51 51 51 51 51 50 50 50 50 49 47 47 47 47 46 47 47 46 45 44 43 42 42 41 42 43 43 44 44 44 42 42 42 42 41
51 51 51 50 50 50 50 50 49 48 47 47 46 45 43 43 43 42 42 42 41 40 40 41 39 39 39 39 39 38 39 41 41 40 40 39 39 39
49 50 49 48 48 48 48 48 46 45 44 44 43 41 41 40 39 39 39 38 37 37 37 37 37 37 36 35 35 35 36 36 36 36 35 35 35 36
46 46 45 46 46 46 46 45 43 42 40 40 39 38 39 38 38 37 36 35 34 34 34 34 34 34 33 32 31 32 32 32 33 32 32 32 32 33
43 43 42 43 43 43 42 40 39 37 36 36 36 36 36 35 35 34 33 32 31 30 31 31 31 31 31 29 28 29 29 29 30 29 30 30 31 31
41 40 40 40 38 37 36 35 35 34 34 33 33 33 33 32 32 31 30 30 29 29 29 29 28 27 27 27 26 26 26 26 27 27 27 28 27 27
39 38 37 35 34 33 32 32 31 31 31 30 30 30 29 28 27 27 28 28 27 27 26 26 26 26 25 25 25 24 25 25 25 25 25 25 25 24
36 35 33 32 32 30 29 29 29 28 28 28 28 28 27 27 26 26 26 26 25 24 24 25 24 24 23 24 22 21 22 22 23 24 23 22 21 21
34 33 32 31 30 28 27 27 26 26 25 25 26 26 27 27 27 26 26 25 24 24 23 23 23 22 22 22 21 20 20 20 21 21 21 20 20 20
31 30 29 28 27 26 25 24 24 24 23 23 24 24 25 25 25 25 24 24 23 23 23 23 22 22 22 21 21 19 18 19 19 19 19 19 19 19
28 27 25 24 24 23 23 23 23 22 21 21 22 22 23 23 22 22 21 21 22 24 24 23 22 21 20 19 19 18 18 18 18 18 18 18 18 18
25 23 22 21 20 20 20 20 20 20 19 19 19 20 20 20 19 19 20 20 21 21 21 20 20 20 20 19 19 19 19 18 18 17 17 16 16 16
22 21 20 19 18 18 18 18 18 17 17 17 17 18 18 18 18 18 18 18 19 19 19 18 18 19 19 19 18 18 18 18 17 16 16 16 15 14
20 19 18 17 16 16 16 15 15 16 15 15 16 17 17 17 17 17 17 17 18 18 18 19 18 18 17 17 17 17 18 17 17 16 16 16 15 14
Wind_Direction
280 280 280 279 278 277 277 275 275 274 272 270 269 269 269 269 268 268 268 268 268 267 267 266 266 266 266 266 266 266 265 267 268 269 269 270 272 273
280 280 280 279 278 277 277 276 275 274 272 271 269 269 269 269 269 268 268 268 268 268 267 267 266 265 265 265 265 265 265 265 267 268 268 269 270 271
281 281 280 278 278 278 276 276 275 275 274 272 271 270 269 269 269 269 269 268 268 268 267 266 265 264 264 264 264 264 264 264 266 266 268 268 269 269
282 282 280 278 278 277 276 276 276 276 275 274 272 271 269 269 269 268 268 268 268 267 266 265 264 264 264 264 264 264 264 264 265 266 267 267 267 268
281 281 281 279 279 277 277 277 277 276 276 275 273 272 271 270 268 268 267 267 267 267 266 265 265 265 265 265 264 264 264 264 264 265 266 266 267 268
281 281 281 280 279 279 278 278 278 277 277 275 273 271 271 270 269 268 267 267 267 267 266 266 266 265 265 265 264 264 265 264 264 264 265 266 266 266
282 282 281 281 281 280 279 279 279 278 277 276 274 272 271 270 269 268 268 267 267 267 266 265 266 265 265 265 265 265 264 264 264 264 264 264 265 264
283 282 282 281 281 280 280 279 279 278 277 276 274 273 271 270 267 267 266 266 266 267 267 266 266 265 265 265 264 264 264 265 265 264 263 263 262 263
284 283 282 282 281 281 281 280 278 278 277 276 274 274 270 269 267 267 266 266 266 266 266 266 265 264 264 264 265 265 265 264 263 261 262 264 263 263
285 284 284 283 282 281 281 280 278 278 277 276 274 273 270 267 267 267 266 265 265 265 264 263 264 264 263 264 266 266 264 262 261 260 262 264 263 262
286 286 285 284 283 281 280 279 278 277 275 274 273 272 268 266 265 265 265 265 264 262 262 263 262 262 263 263 263 263 262 261 260 261 262 263 262 262
287 286 285 284 282 281 280 279 278 276 273 272 270 268 265 264 264 265 265 265 264 262 262 261 261 262 262 260 260 259 259 260 261 261 262 261 261 262
288 287 285 284 282 280 279 279 277 275 271 269 267 265 264 263 264 265 264 264 262 261 260 259 260 261 260 257 257 257 258 258 258 259 259 259 261 262
289 288 287 285 283 281 279 277 276 273 270 268 266 265 265 264 263 263 262 261 260 258 258 260 261 259 257 255 256 253 253 253 255 256 258 259 260 264
290 289 287 286 283 280 278 276 274 271 268 266 263 263 262 260 258 259 258 257 256 256 258 259 257 255 256 257 255 251 249 250 253 255 255 257 260 264
289 287 285 284 282 280 277 275 273 270 268 265 261 260 259 256 254 254 255 255 254 254 254 253 252 252 254 255 253 251 250 250 251 252 255 258 261 265
286 285 284 282 281 279 276 274 273 270 267 264 260 257 255 253 252 253 253 252 252 251 249 248 250 250 249 249 247 249 250 249 249 250 254 257 262 267
285 284 282 280 279 277 274 272 271 269 265 261 258 256 254 253 253 253 253 252 248 245 244 245 246 248 251 247 245 247 248 247 248 249 253 260 263 265
284 282 281 278 276 275 273 270 268 266 263 261 258 256 254 252 251 251 249 246 245 242 242 245 247 249 249 244 241 242 244 246 247 252 256 260 262 263
284 281 279 277 274 272 271 270 268 264 262 260 256 254 254 252 250 247 243 243 242 241 242 245 247 245 242 240 240 241 244 245 247 250 254 258 261 264
283 281 278 274 270 269 269 268 265 261 258 255 253 252 250 247 245 243 241 239 238 237 239 241 240 239 240 240 241 240 243 246 251 252 254 258 261 265
280 278 277 274 271 269 269 266 261 257 255 250 249 247 245 243 240 239 238 236 235 235 236 235 236 239 241 242 243 242 245 248 251 251 252 256 259 262
277 274 273 271 269 268 266 262 256 253 249 245 245 244 241 239 237 237 237 234 231 232 231 230 233 237 239 242 243 244 246 247 248 248 248 251 254 257
Height
5641 5638 5636 5634 5632 5630 5629 5627 5627 5627 5631 5632 5630 5629 5627 5627 5627 5626 5627 5628 5628 5629 5630 5631 5632 5633 5635 5636 5637 5638 5639 5640 5641 5642 5642 5643 5643 5643
5625 5622 5620 5617 5616 5615 5613 5612 5610 5610 5612 5615 5614 5613 5612 5611 5610 5610 5610 5611 5612 5612 5613 5614 5615 5616 5618 5619 5620 5621 5623 5624 5626 5627 5627 5628 5629 5629
5609 5607 5605 5602 5601 5599 5597 5596 5595 5594 5594 5598 5597 5596 5596 5595 5594 5594 5594 5594 5595 5595 5595 5596 5597 5599 5601 5602 5604 5605 5607 5608 5610 5611 5611 5612 5613 5615
5595 5592 5590 5587 5586 5584 5582 5581 5580 5579 5578 5580 5581 5579 5579 5578 5577 5577 5577 5577 5578 5579 5579 5580 5581 5582 5584 5586 5587 5589 5590 5592 5594 5595 5597 5598 5599 5599
5580 5578 5575 5573 5571 5569 5567 5566 5565 5563 5562 5562 5563 5563 5562 5561 5561 5561 5561 5561 5562 5562 5563 5564 5565 5566 5568 5570 5571 5573 5574 5576 5578 5580 5581 5582 5583 5584
5566 5563 5560 5558 5556 5554 5552 5550 5549 5547 5546 5545 5546 5546 5546 5545 5544 5545 5546 5546 5547 5547 5547 5548 5549 5550 5552 5554 5555 5557 5558 5560 5562 5564 5565 5567 5568 5569
5552 5548 5546 5543 5541 5538 5537 5535 5533 5531 5530 5529 5529 5530 5530 5529 5528 5528 5529 5531 5531 5531 5532 5533 5533 5535 5537 5538 5540 5541 5543 5544 5546 5548 5550 5552 5553 5554
5537 5534 5531 5528 5526 5523 5521 5519 5517 5515 5514 5513 5513 5514 5514 5514 5512 5513 5513 5515 5517 5518 5516 5518 5518 5520 5522 5524 5525 5526 5528 5529 5531 5533 5535 5537 5538 5540
5522 5519 5516 5514 5511 5509 5507 5505 5503 5501 5499 5498 5498 5498 5499 5499 5498 5498 5498 5499 5502 5502 5501 5504 5505 5506 5508 5509 5511 5512 5514 5516 5518 5520 5522 5523 5525 5527
5508 5504 5501 5499 5496 5494 5492 5490 5488 5487 5485 5483 5483 5484 5484 5484 5484 5484 5485 5486 5488 5489 5488 5491 5493 5494 5496 5497 5498 5500 5502 5504 5506 5507 5509 5511 5513 5514
5494 5490 5487 5484 5482 5479 5477 5475 5474 5473 5471 5470 5470 5470 5471 5471 5471 5471 5472 5473 5476 5478 5478 5479 5482 5483 5485 5487 5488 5489 5491 5492 5494 5496 5498 5500 5501 5503
5481 5476 5473 5470 5467 5465 5462 5461 5460 5460 5458 5458 5458 5458 5459 5460 5460 5460 5461 5462 5464 5467 5469 5469 5471 5472 5475 5477 5478 5479 5481 5482 5484 5486 5488 5489 5491 5492
5468 5464 5460 5457 5454 5452 5449 5448 5447 5446 5446 5446 5446 5447 5448 5449 5450 5451 5451 5452 5454 5457 5459 5460 5462 5463 5464 5467 5469 5470 5471 5473 5475 5477 5479 5480 5482 5483
5456 5452 5449 5445 5442 5440 5438 5437 5436 5435 5435 5435 5436 5437 5438 5439 5440 5441 5442 5443 5445 5447 5449 5451 5452 5454 5456 5458 5460 5462 5463 5465 5467 5469 5471 5472 5474 5475
5444 5441 5438 5434 5431 5429 5428 5426 5425 5425 5425 5425 5426 5428 5429 5430 5431 5432 5434 5435 5437 5439 5441 5443 5444 5446 5448 5450 5452 5454 5455 5457 5459 5461 5463 5465 5466 5467
5433 5430 5427 5424 5422 5420 5419 5417 5416 5416 5416 5416 5418 5419 5420 5421 5423 5425 5426 5428 5430 5432 5434 5435 5437 5439 5441 5442 5444 5446 5448 5450 5452 5454 5456 5458 5459 5459
5423 5420 5418 5416 5414 5412 5411 5410 5409 5408 5408 5409 5410 5411 5412 5414 5416 5417 5419 5421 5423 5425 5427 5429 5430 5432 5434 5436 5438 5440 5441 5444 5446 5447 5449 5451 5452 5453
5413 5411 5409 5407 5406 5404 5403 5402 5401 5401 5401 5401 5402 5404 5405 5407 5409 5411 5412 5414 5416 5418 5421 5423 5424 5426 5428 5430 5432 5434 5436 5438 5440 5442 5443 5445 5446 5447
5405 5403 5401 5399 5398 5397 5396 5395 5395 5394 5395 5395 5396 5398 5399 5401 5402 5404 5406 5408 5410 5412 5414 5417 5419 5421 5423 5425 5427 5429 5431 5433 5435 5437 5438 5439 5440 5441
5397 5395 5393 5392 5391 5390 5389 5389 5388 5388 5388 5389 5390 5391 5393 5395 5396 5398 5400 5402 5404 5407 5409 5411 5414 5416 5418 5421 5423 5425 5426 5428 5430 5432 5433 5434 5434 5435
5390 5388 5387 5385 5385 5384 5383 5383 5382 5382 5383 5384 5385 5386 5388 5389 5391 5393 5395 5397 5400 5402 5404 5406 5409 5411 5413 5416 5418 5420 5422 5423 5425 5426 5428 5428 5429 5430
5383 5382 5381 5380 5379 5378 5377 5377 5377 5377 5377 5378 5380 5381 5383 5384 5386 5388 5390 5393 5395 5397 5400 5402 5404 5407 5409 5411 5414 5415 5417 5418 5420 5421 5422 5424 5425 5426
5378 5377 5376 5375 5374 5373 5373 5372 5372 5372 5373 5374 5375 5376 5378 5380 5382 5384 5386 5388 5390 5393 5395 5398 5400 5402 5405 5407 5409 5410 5412 5414 5415 5417 5418 5419 5420 5421